Location: Cypress Hills Dark-Sky Preserve - CHICO
(49.6176°N, 110.2634°W)
Time: 04:20:21
(UTC-06:00)

Amateur Radio Satellites - All Passes

Search period start: 28 July 2014 03:50
Search period end: 29 July 2014 03:50
Location: Cypress Hills Dark-Sky Preserve - CHICO, 49.6176°N, 110.2634°W

Satellite Date Start Highest point End Downlink Frequencies (MHz)
Time Altitude Azimuth
Lituanica SAT-1 28 Jul 03:57:13 03:58:40 58° 201° (SSW) 04:00:06 437.275 MHz beacon
TMSAT-1 28 Jul 03:59:02 04:03:54 36° 96° (E) 04:08:44 436.925 FM
ISS 28 Jul 04:04:57 04:08:17 59° 2° (N) 04:11:38 145.800 FM
AO-27 28 Jul 04:06:09 04:11:21 73° 288° (WNW) 04:16:31 436.795 MHz FM
Uribyol 2 28 Jul 04:06:59 04:12:08 70° 289° (WNW) 04:17:15 436.500 FM
Gurwin Techsat 1B 28 Jul 04:22:31 04:27:52 73° 103° (ESE) 04:33:09 435.225 FM
Sapphire 28 Jul 04:25:42 04:29:48 21° 331° (NNW) 04:33:55 437.095 MHz 1200 baud AX-25 AFSK
Oscar 19 28 Jul 04:40:29 04:44:25 22° 301° (WNW) 04:48:20 437.125 CW, 437.150 USB
JAS-1B 28 Jul 04:47:17 04:56:59 76° 291° (WNW) 05:05:25 435.800 - 435.900 CW/SSB
PCSat 28 Jul 05:00:45 05:04:04 16° 340° (NNW) 05:07:24 145.825 MHz
AO-Echo 28 Jul 05:04:49 05:08:56 25° 300° (WNW) 05:12:57 ?
MaSat-1 28 Jul 05:08:57 05:12:25 17° 33° (NNE) 05:15:53 437.345 MHz
Oscar 16 28 Jul 05:09:42 05:12:15 14° 308° (NW) 05:14:49 437.025 USB, Beacon 2401.1428
OPAL 28 Jul 05:20:31 05:24:41 27° 264° (W) 05:28:52 ?
Uosat F 28 Jul 05:21:32 05:26:21 44° 99° (E) 05:31:08 435.120 FM
ITAMSAT 1 28 Jul 05:27:43 05:31:19 19° 304° (NW) 05:34:53 435.822 SSB
AO-7 28 Jul 05:36:55 05:45:05 54° 102° (ESE) 05:53:09 29.400 - 29.500 MHz
TMSAT-1 28 Jul 05:38:58 05:43:52 39° 295° (WNW) 05:48:44 436.925 FM
ISS 28 Jul 05:41:45 05:45:07 74° 202° (SSW) 05:48:29 145.800 FM
AO-27 28 Jul 05:47:23 05:50:01 14° 308° (NW) 05:52:39 436.795 MHz FM
Uribyol 2 28 Jul 05:48:18 05:50:43 13° 309° (NW) 05:53:08 436.500 FM
JAS-2 28 Jul 05:59:24 06:00:23 10° 78° (ENE) 06:01:20 435.800 - 435.900 CW/SSB, 435.910 FM
STRAND 1 28 Jul 06:02:50 06:07:11 29° 61° (ENE) 06:11:33 ?
Gurwin Techsat 1B 28 Jul 06:03:24 06:07:19 21° 303° (WNW) 06:11:14 435.225 FM
Sapphire 28 Jul 06:13:10 06:15:23 12° 357° (N) 06:17:36 437.095 MHz 1200 baud AX-25 AFSK
JAS-1B 28 Jul 06:38:31 06:45:57 26° 315° (NW) 06:52:50 435.800 - 435.900 CW/SSB
MaSat-1 28 Jul 06:45:35 06:50:52 59° 54° (NE) 06:56:00 437.345 MHz
Hamsat 28 Jul 06:46:46 06:50:31 29° 94° (E) 06:54:16 145.90 MHz
PCSat 28 Jul 06:47:31 06:49:52 13° 7° (N) 06:52:12 145.825 MHz
KITSAT 1 28 Jul 06:59:05 07:06:47 50° 115° (ESE) 07:14:30 435.175 FM
Uosat F 28 Jul 07:00:39 07:04:59 30° 298° (WNW) 07:09:18 435.120 FM
ISS 28 Jul 07:19:04 07:21:26 18° 220° (SW) 07:23:47 145.800 FM
AO-7 28 Jul 07:30:00 07:37:46 45° 303° (WNW) 07:45:30 29.400 - 29.500 MHz
Saudisat 1A 28 Jul 07:34:27 07:36:29 13° 110° (ESE) 07:38:31 436.775 MHz
JAS-2 28 Jul 07:40:50 07:47:01 65° 101° (E) 07:52:30 435.800 - 435.900 CW/SSB, 435.910 FM
STRAND 1 28 Jul 07:41:12 07:46:10 49° 260° (W) 07:51:11 ?
SO-67 28 Jul 07:51:16 07:53:58 21° 93° (E) 07:56:38 435.3500 MHz FM
Sapphire 28 Jul 07:57:32 08:01:08 18° 23° (NNE) 08:04:44 437.095 MHz 1200 baud AX-25 AFSK
Hamsat 28 Jul 08:22:39 08:26:32 34° 293° (WNW) 08:30:26 145.90 MHz
MaSat-1 28 Jul 08:23:30 08:27:54 27° 254° (WSW) 08:32:09 437.345 MHz
PCSat 28 Jul 08:30:57 08:35:20 24° 32° (NNE) 08:39:42 145.825 MHz
JAS-1B 28 Jul 08:31:28 08:33:02 11° 340° (NNW) 08:34:36 435.800 - 435.900 CW/SSB
KITSAT 1 28 Jul 08:54:19 09:02:13 54° 318° (NW) 09:10:10 435.175 FM
Saudisat 1A 28 Jul 09:10:57 09:15:23 85° 129° (SE) 09:19:50 436.775 MHz
HO-68 28 Jul 09:12:42 09:17:50 21° 88° (E) 09:22:56 435.675 MHz FM
SO-67 28 Jul 09:23:59 09:27:07 31° 291° (WNW) 09:30:13 435.3500 MHz FM
AO-7 28 Jul 09:24:10 09:28:32 16° 328° (NNW) 09:32:53 29.400 - 29.500 MHz
JAS-2 28 Jul 09:26:34 09:31:34 26° 304° (NW) 09:36:08 435.800 - 435.900 CW/SSB, 435.910 FM
Sapphire 28 Jul 09:40:33 09:45:52 50° 47° (NE) 09:51:08 437.095 MHz 1200 baud AX-25 AFSK
PCSat 28 Jul 10:14:04 10:19:32 86° 55° (NE) 10:24:59 145.825 MHz
UKube-1 28 Jul 10:33:31 10:37:47 49° 100° (E) 10:42:00 145.840 MHz, 145.915 MHz
Saudisat 1A 28 Jul 10:51:57 10:55:31 23° 330° (NNW) 10:59:05 436.775 MHz
KITSAT 1 28 Jul 10:52:54 10:59:35 27° 346° (NNW) 11:06:16 435.175 FM
HO-68 28 Jul 10:59:18 11:06:30 90° 289° (WNW) 11:13:39 435.675 MHz FM
Oscar 11 28 Jul 11:19:27 11:23:49 81° 104° (ESE) 11:28:10 145.825 FM, Beacon 2401.500 USB
Sapphire 28 Jul 11:24:18 11:29:08 33° 247° (WSW) 11:33:56 437.095 MHz 1200 baud AX-25 AFSK
FUNcube-1 28 Jul 11:38:57 11:43:02 50° 100° (E) 11:47:06 145.950 - 145.970 MHz USB
PCSat 28 Jul 11:58:43 12:02:16 18° 254° (WSW) 12:05:49 145.825 MHz
JAS-1B 28 Jul 12:00:20 12:05:27 16° 33° (NNE) 12:10:38 435.800 - 435.900 CW/SSB
UKube-1 28 Jul 12:10:21 12:13:42 22° 299° (WNW) 12:17:02 145.840 MHz, 145.915 MHz
Saudisat 1A 28 Jul 12:34:55 12:36:40 12° 354° (N) 12:38:26 436.775 MHz
Oscar 19 28 Jul 12:43:51 12:47:54 24° 60° (ENE) 12:51:59 437.125 CW, 437.150 USB
HO-68 28 Jul 12:47:55 12:53:23 25° 310° (NW) 12:58:50 435.675 MHz FM
KITSAT 1 28 Jul 12:51:08 12:57:51 27° 15° (NNE) 13:04:33 435.175 FM
Oscar 11 28 Jul 12:57:03 12:59:26 15° 302° (WNW) 13:01:49 145.825 FM, Beacon 2401.500 USB
AO-7 28 Jul 13:04:28 13:06:39 11° 23° (NNE) 13:08:50 29.400 - 29.500 MHz
AO-Echo 28 Jul 13:05:29 13:09:20 21° 57° (ENE) 13:13:11 ?
Oscar 16 28 Jul 13:11:13 13:15:58 40° 66° (ENE) 13:20:45 437.025 USB, Beacon 2401.1428
FUNcube-1 28 Jul 13:16:06 13:19:09 20° 298° (WNW) 13:22:12 145.950 - 145.970 MHz USB
ITAMSAT 1 28 Jul 13:31:09 13:35:40 31° 62° (ENE) 13:40:11 435.822 SSB
JAS-1B 28 Jul 13:44:52 13:53:20 42° 57° (ENE) 14:02:21 435.800 - 435.900 CW/SSB
SO-50 28 Jul 13:44:53 13:49:18 60° 125° (SE) 13:53:50 436.795 FM
RS-15 28 Jul 13:46:13 13:56:24 44° 112° (ESE) 14:06:24 29.354 - 29.394 USB, Beacon 29.352 USB
TMSAT-1 28 Jul 13:47:08 13:50:14 16° 54° (NE) 13:53:21 436.925 FM
AO-27 28 Jul 13:49:43 13:54:37 43° 66° (ENE) 13:59:32 436.795 MHz FM
Uribyol 2 28 Jul 13:50:15 13:55:10 44° 66° (ENE) 14:00:05 436.500 FM
Gurwin Techsat 1B 28 Jul 14:09:19 14:13:50 29° 61° (ENE) 14:18:22 435.225 FM
UOSAT-12 28 Jul 14:12:13 14:13:52 12° 108° (ESE) 14:15:31 437.025 FM, 437.400 FM
Saudisat 1A 28 Jul 14:15:26 14:18:05 15° 19° (NNE) 14:20:43 436.775 MHz
Oscar 19 28 Jul 14:21:52 14:26:54 58° 259° (W) 14:31:59 437.125 CW, 437.150 USB
AO-Echo 28 Jul 14:42:14 14:47:33 76° 257° (WSW) 14:52:54 ?
KITSAT 1 28 Jul 14:47:11 14:55:09 56° 43° (NE) 15:03:03 435.175 FM
AO-7 28 Jul 14:49:51 14:56:48 31° 49° (NE) 15:03:45 29.400 - 29.500 MHz
Oscar 16 28 Jul 14:50:51 14:55:25 33° 265° (W) 15:00:02 437.025 USB, Beacon 2401.1428
Uosat F 28 Jul 15:02:42 15:05:56 17° 55° (NE) 15:09:11 435.120 FM
ITAMSAT 1 28 Jul 15:10:00 15:15:00 46° 261° (W) 15:20:02 435.822 SSB
TMSAT-1 28 Jul 15:24:05 15:29:23 82° 73° (ENE) 15:34:44 436.925 FM
SO-50 28 Jul 15:26:14 15:30:12 29° 326° (NW) 15:34:16 436.795 FM
AO-27 28 Jul 15:29:37 15:34:15 32° 265° (W) 15:38:55 436.795 MHz FM
Uribyol 2 28 Jul 15:30:15 15:34:48 30° 265° (W) 15:39:22 436.500 FM
JAS-1B 28 Jul 15:34:16 15:43:17 68° 259° (W) 15:53:13 435.800 - 435.900 CW/SSB
Gurwin Techsat 1B 28 Jul 15:48:26 15:53:35 50° 261° (W) 15:58:47 435.225 FM
UOSAT-12 28 Jul 15:48:34 15:53:11 74° 127° (SE) 15:57:54 437.025 FM, 437.400 FM
Saudisat 1A 28 Jul 15:54:31 15:58:46 43° 41° (NE) 16:02:59 436.775 MHz
RS-15 28 Jul 15:57:14 16:08:15 69° 317° (NW) 16:19:13 29.354 - 29.394 USB, Beacon 29.352 USB
JAS-2 28 Jul 16:15:16 16:19:03 15° 46° (NE) 16:22:41 435.800 - 435.900 CW/SSB, 435.910 FM
AO-Echo 28 Jul 16:25:02 16:27:12 12° 276° (W) 16:29:22 ?
Uosat F 28 Jul 16:39:02 16:44:06 86° 255° (WSW) 16:49:12 435.120 FM
AO-7 28 Jul 16:40:25 16:48:48 84° 251° (WSW) 16:57:15 29.400 - 29.500 MHz
KITSAT 1 28 Jul 16:42:52 16:50:31 48° 245° (WSW) 16:58:06 435.175 FM
TMSAT-1 28 Jul 17:06:40 17:09:59 17° 272° (W) 17:13:19 436.925 FM
SO-50 28 Jul 17:09:51 17:12:14 14° 350° (N) 17:14:39 436.795 FM
OPAL 28 Jul 17:24:40 17:29:38 53° 103° (ESE) 17:34:38 ?
JAS-1B 28 Jul 17:29:47 17:35:44 19° 282° (WNW) 17:42:01 435.800 - 435.900 CW/SSB
UOSAT-12 28 Jul 17:29:50 17:33:49 27° 328° (NNW) 17:37:51 437.025 FM, 437.400 FM
Saudisat 1A 28 Jul 17:34:20 17:38:17 32° 241° (WSW) 17:42:11 436.775 MHz
Hamsat 28 Jul 17:44:24 17:48:12 35° 68° (ENE) 17:52:03 145.90 MHz
JAS-2 28 Jul 17:55:18 18:02:44 53° 66° (ENE) 18:09:37 435.800 - 435.900 CW/SSB, 435.910 FM
RS-15 28 Jul 18:12:48 18:22:49 38° 348° (NNW) 18:32:55 29.354 - 29.394 USB, Beacon 29.352 USB
Uosat F 28 Jul 18:21:21 18:23:40 13° 273° (W) 18:26:00 435.120 FM
SO-67 28 Jul 18:29:24 18:31:32 16° 63° (ENE) 18:33:40 435.3500 MHz FM
AO-7 28 Jul 18:36:50 18:42:50 21° 272° (W) 18:48:52 29.400 - 29.500 MHz
SO-50 28 Jul 18:51:56 18:54:42 15° 15° (NNE) 18:57:29 436.795 FM
OPAL 28 Jul 19:04:05 19:08:16 27° 302° (WNW) 19:12:29 ?
UOSAT-12 28 Jul 19:13:05 19:15:32 14° 352° (N) 19:17:58 437.025 FM, 437.400 FM
Hamsat 28 Jul 19:20:42 19:24:15 27° 266° (W) 19:27:51 145.90 MHz
JAS-2 28 Jul 19:40:38 19:47:53 41° 264° (W) 19:54:41 435.800 - 435.900 CW/SSB, 435.910 FM
HO-68 28 Jul 19:46:14 19:52:03 28° 52° (NE) 19:57:53 435.675 MHz FM
STRAND 1 28 Jul 19:47:16 19:52:06 41° 98° (E) 19:56:54 ?
UKube-1 28 Jul 20:00:22 20:01:58 12° 54° (NE) 20:03:34 145.840 MHz, 145.915 MHz
SO-67 28 Jul 20:00:56 20:04:17 45° 261° (W) 20:07:40 435.3500 MHz FM
RS-15 28 Jul 20:28:10 20:38:29 43° 22° (NNE) 20:48:59 29.354 - 29.394 USB, Beacon 29.352 USB
SO-50 28 Jul 20:32:09 20:36:33 37° 38° (NE) 20:41:00 436.795 FM
Oscar 11 28 Jul 20:44:46 20:47:15 15° 58° (ENE) 20:49:45 145.825 FM, Beacon 2401.500 USB
UOSAT-12 28 Jul 20:54:34 20:57:34 16° 17° (NNE) 21:00:33 437.025 FM, 437.400 FM
FUNcube-1 28 Jul 21:07:37 21:08:09 10° 55° (NE) 21:08:40 145.950 - 145.970 MHz USB
STRAND 1 28 Jul 21:26:41 21:31:13 33° 297° (WNW) 21:35:43 ?
HO-68 28 Jul 21:31:56 21:39:07 79° 253° (WSW) 21:46:20 435.675 MHz FM
UKube-1 28 Jul 21:33:04 21:37:26 77° 73° (ENE) 21:41:50 145.840 MHz, 145.915 MHz
SO-50 28 Jul 22:12:43 22:17:14 45° 238° (WSW) 22:21:48 436.795 FM
MaSat-1 28 Jul 22:17:56 22:22:08 69° 117° (ESE) 22:27:01 437.345 MHz
Oscar 11 28 Jul 22:18:37 22:22:55 76° 257° (WSW) 22:27:15 145.825 FM, Beacon 2401.500 USB
UOSAT-12 28 Jul 22:34:24 22:38:55 42° 40° (NE) 22:43:24 437.025 FM, 437.400 FM
FUNcube-1 28 Jul 22:39:31 22:43:48 71° 74° (ENE) 22:48:01 145.950 - 145.970 MHz USB
RS-15 28 Jul 22:41:16 22:52:19 88° 51° (NE) 23:03:44 29.354 - 29.394 USB, Beacon 29.352 USB
UKube-1 28 Jul 23:12:00 23:14:12 14° 271° (W) 23:16:24 145.840 MHz, 145.915 MHz
HO-68 28 Jul 23:23:29 23:27:58 17° 274° (W) 23:32:29 435.675 MHz FM
MaSat-1 28 Jul 23:56:20 00:00:02 24° 320° (NW) 00:04:06 437.345 MHz
ISS 29 Jul 00:04:10 00:06:20 16° 139° (SE) 00:08:32 145.800 FM
UOSAT-12 29 Jul 00:14:42 00:19:05 38° 240° (WSW) 00:23:25 437.025 FM, 437.400 FM
FUNcube-1 29 Jul 00:18:27 00:20:41 14° 271° (W) 00:22:55 145.950 - 145.970 MHz USB
Sapphire 29 Jul 00:28:57 00:32:17 17° 105° (ESE) 00:35:37 437.095 MHz 1200 baud AX-25 AFSK
RS-15 29 Jul 00:54:25 01:03:26 31° 255° (WSW) 01:12:43 29.354 - 29.394 USB, Beacon 29.352 USB
PCSat 29 Jul 01:00:37 01:05:20 31° 112° (ESE) 01:10:04 145.825 MHz
ISS 29 Jul 01:39:16 01:42:36 69° 157° (SSE) 01:45:58 145.800 FM
Uribyol 2 29 Jul 02:01:27 02:02:19 10° 84° (E) 02:03:11 436.500 FM
Sapphire 29 Jul 02:09:32 02:14:57 90° 124° (SE) 02:20:25 437.095 MHz 1200 baud AX-25 AFSK
Oscar 19 29 Jul 02:29:01 02:33:48 36° 96° (E) 02:38:33 437.125 CW, 437.150 USB
PCSat 29 Jul 02:43:14 02:48:32 53° 312° (NW) 02:53:52 145.825 MHz
AO-Echo 29 Jul 02:45:53 02:50:09 26° 92° (E) 02:54:17 ?
Oscar 16 29 Jul 02:57:14 03:02:23 64° 102° (ESE) 03:07:31 437.025 USB, Beacon 2401.1428
OPAL 29 Jul 03:06:35 03:10:37 26° 58° (ENE) 03:14:41 ?
ISS 29 Jul 03:16:05 03:19:25 59° 357° (N) 03:22:46 145.800 FM
JAS-1B 29 Jul 03:16:08 03:25:00 41° 91° (E) 03:32:44 435.800 - 435.900 CW/SSB
ITAMSAT 1 29 Jul 03:18:13 03:23:13 46° 99° (E) 03:28:10 435.822 SSB
TMSAT-1 29 Jul 03:36:06 03:40:19 24° 91° (E) 03:44:31 436.925 FM
AO-27 29 Jul 03:37:22 03:42:34 67° 103° (ESE) 03:47:43 436.795 MHz FM
Uribyol 2 29 Jul 03:37:36 03:42:46 70° 103° (ESE) 03:47:55 436.500 FM
